[[{"header":{"parameterUnit":"m.s-1","parameterCategory":1,"la1":30.2991,"la2":30.254,"lo1":-89.0895,"lo2":-89.0444,"dy":0.0017,"dx":0.0017,"nx":28,"ny":28,"refTime":"2025-06-21T03:00:00:Z","depth":0,"parameterNumber":2,"parameterNumberName":"U-component_of_WINDS"},"data":[0,0,0,0,0,0,0,0,0,0,0,0,0,0,0,0,0,0,0,0,0,0,0,0,0,0,0,0,0,0,0,0,0,0,0,0,0,0,0,0,0,0,0,0,0,0,0,0,0,0,0,0,0,0,0,0,0,0,0.1859,0.186,0,0.194,0.1941,0.1942,0.1946,0.1945,0.1944,0.1943,0.2029,0.2032,0.2035,0,0,0,0,0,0,0,0,0,0,0,0,0,0.171,0.1712,0.1859,0.186,0.1861,0.194,0.1941,0.1942,0.1946,0.1945,0.1944,0.1942,0.2028,0.2032,0.2035,0,0,0,0,0,0,0,0,0,0,0,0,0,0.1781,0.1713,0.1859,0.1872,0.1874,0.1939,0.1941,0.1942,0.1946,0.1945,0.1943,0.1942,0.2027,0.2031,0.2036,0.2094,0,0,0.2051,0.2053,0,0,0,0,0,0,0,0,0.1777,0.1786,0.1869,0.1871,0.1874,0.1931,0.192,0.1993,0.1947,0.1919,0.1943,0.1941,0.1998,0.2005,0.2023,0.2098,0.2102,0.2051,0.2054,0.2056,0.2057,0,0,0,0,0,0,0,0.1772,0.1783,0.1891,0.187,0.1873,0.1875,0.1883,0.1934,0.1966,0.1921,0.1922,0.1931,0.1999,0.2019,0.2025,0.2103,0.2051,0.2055,0.2058,0.206,0.2228,0.2229,0,0,0,0,0,0,0.1764,0.1779,0.1888,0.1893,0.1821,0.1879,0.1888,0.1914,0.1965,0.1971,0.1932,0.1931,0.2011,0.202,0.2028,0.2099,0.2056,0.206,0.2063,0.2226,0.2228,0.223,0,0,0,0,0,0,0.1761,0.1774,0.1885,0.1836,0.1851,0.1883,0.1912,0.1917,0.1936,0.1973,0.1979,0.1947,0.201,0.2022,0.2077,0.2102,0.2063,0.2067,0.2224,0.2227,0.2229,0.224,0,0,0,0,0,0,0.1757,0.1773,0.1795,0.1837,0.1853,0.1932,0.1913,0.1919,0.1944,0.1943,0.1988,0.1994,0.201,0.207,0.2082,0.2108,0.2071,0.2222,0.2226,0.2228,0.2238,0.2243,0.2247,0,0,0,0,0,0.1751,0.1795,0.1796,0.1809,0.1881,0.1933,0.1943,0.1959,0.1946,0.1969,0.1992,0.1993,0.2097,0.2076,0.2089,0.2117,0.2221,0.2225,0.2228,0.2236,0.2242,0.2247,0,0,0,0,0,0,0.1757,0.1801,0.1802,0.1861,0.1893,0.1934,0.1963,0.1965,0.2003,0.2001,0.202,0.203,0.2085,0.2107,0.2082,0.2175,0.2158,0.2164,0.2159,0.2165,0.2169,0.2163,0.2075,0,0,0,0,0,0.1765,0.1803,0.184,0.1888,0.1904,0.1931,0.1954,0.1964,0.1998,0.2012,0.204,0.2074,0.2114,0.2141,0.218,0.2241,0.225,0.2266,0.2271,0.2274,0.228,0.2312,0.2319,0.2242,0.2242,0.2242,0,0,0.1782,0.1811,0.1834,0.189,0.1916,0.1955,0.1942,0.1985,0.2014,0.2019,0.2073,0.2094,0.2133,0.2191,0.2218,0.2211,0.2303,0.2279,0.2281,0.2285,0.2317,0.2324,0.233,0.2244,0.2244,0.2244,0,0,0.1833,0.1859,0.1902,0.1928,0.1967,0.1984,0.1994,0.2034,0.2048,0.2101,0.2106,0.2141,0.2211,0.2238,0.2261,0.2321,0.2323,0.2333,0.2357,0.2388,0.2394,0.24,0.2421,0.2428,0.2338,0.2338,0.2338,0,0.185,0.1909,0.1924,0.1966,0.199,0.1995,0.2038,0.2063,0.2113,0.213,0.2121,0.2206,0.2234,0.2297,0.2312,0.233,0.2342,0.2328,0.2392,0.2398,0.2403,0.2423,0.2431,0.2339,0.2339,0.2339,0.2339,0,0.1927,0.1967,0.1997,0.2044,0.2072,0.2114,0.2136,0.2163,0.2169,0.2187,0.2242,0.2274,0.2319,0.2335,0.2343,0.24,0.2393,0.2388,0.2371,0.2411,0.243,0.2438,0.2341,0.234,0.234,0.234,0,0,0.1985,0.2038,0.2049,0.207,0.2112,0.2144,0.2187,0.2229,0.2251,0.2286,0.2322,0.2379,0.2374,0.24,0.2411,0.2438,0.2482,0.2429,0.2431,0.2438,0.2546,0.2549,0.2558,0.2484,0.2485,0.2486,0.2542,0,0.2041,0.2115,0.2129,0.2195,0.2232,0.2236,0.2273,0.2303,0.2321,0.2355,0.2375,0.2415,0.2406,0.2421,0.2449,0.2471,0.2504,0.2467,0.2517,0.2519,0.2507,0.2568,0.2573,0.2624,0.255,0.2551,0.2552,0,0.2116,0.215,0.2218,0.2255,0.2271,0.2304,0.2343,0.2376,0.241,0.2421,0.2449,0.2457,0.2501,0.2482,0.2543,0.2517,0.2538,0.2552,0.2555,0.256,0.2538,0.2575,0.2641,0.2648,0.2564,0.2563,0.2562,0,0.2151,0.2214,0.2263,0.228,0.2324,0.2347,0.2366,0.2399,0.2423,0.2458,0.2474,0.2514,0.2536,0.2567,0.2585,0.2569,0.2644,0.2627,0.2654,0.2654,0.267,0.2669,0.274,0.2684,0.2684,0.2684,0.2684,0,0.2211,0.2253,0.2279,0.2309,0.2355,0.2371,0.2417,0.2436,0.2465,0.2498,0.2505,0.2537,0.2558,0.2593,0.2608,0.2655,0.2666,0.2676,0.2679,0.2675,0.2673,0.2689,0.2686,0.2686,0.2686,0.2685,0.2685,0,0.2258,0.2277,0.233,0.2367,0.2377,0.2409,0.2441,0.247,0.2487,0.253,0.2541,0.2568,0.2609,0.2629,0.2681,0.2691,0.2744,0.2746,0.2732,0.2734,0.276,0.2757,0.2844,0.2855,0.2792,0.2793,0.2793,0,0.2295,0.2327,0.2366,0.2388,0.2408,0.2445,0.2469,0.2485,0.2511,0.2551,0.2575,0.2616,0.265,0.2716,0.274,0.278,0.2782,0.2809,0.2788,0.2782,0.2781,0.2779,0.2782,0.2813,0.2814,0.2814,0.2815,0,0.2359,0.2366,0.2401,0.2438,0.2466,0.2497,0.2527,0.2545,0.2567,0.2595,0.2636,0.2662,0.2714,0.2754,0.2795,0.2816,0.2819,0.2821,0.2829,0.2826,0.2816,0.2821,0.2742,0.2819,0.2819,0.2818,0.2818,0.2818,0.2402,0.243,0.2461,0.2499,0.2523,0.255,0.2579,0.2599,0.2633,0.2676,0.2684,0.2727,0.276,0.2814,0.2836,0.287,0.2865,0.2877,0.288,0.2883,0.2883,0.281,0.2878,0.2878,0.2878,0.2878,0.2878,0,0.2465,0.2485,0.2519,0.256,0.259,0.2589,0.2622,0.2647,0.2685,0.2714,0.2747,0.2794,0.2833,0.286,0.2899,0.2921,0.2924,0.2931,0.293,0.2934,0.2887,0.2875,0.2929,0.2929,0.2929,0.2929,0.2929,0.2929,0.2502,0.2548,0.2559,0.2617,0.2637,0.2679,0.2698,0.2723,0.2747,0.2798,0.283,0.2847,0.2875,0.2917,0.2952,0.2959,0.2973,0.2981,0.2987,0.2943,0.2938,0.2933,0.2922,0.2984,0.2984,0.3032,0.3032,0.3032]},{"header":{"parameterUnit":"m.s-1","parameterCategory":1,"la1":30.2991,"la2":30.254,"lo1":-89.0895,"lo2":-89.0444,"dy":0.0017,"dx":0.0017,"nx":28,"ny":28,"refTime":"2025-06-21T03:00:00:Z","depth":0,"parameterNumber":3,"parameterNumberName":"V-component_of_WINDS"},"data":[0,0,0,0,0,0,0,0,0,0,0,0,0,0,0,0,0,0,0,0,0,0,0,0,0,0,0,0,0,0,0,0,0,0,0,0,0,0,0,0,0,0,0,0,0,0,0,0,0,0,0,0,0,0,0,0,0,0,2.0842,2.0842,0,2.0834,2.0834,2.0834,2.0845,2.0846,2.0846,2.0847,2.0836,2.0835,2.0835,0,0,0,0,0,0,0,0,0,0,0,0,0,2.0865,2.0864,2.0842,2.0842,2.0842,2.0834,2.0834,2.0834,2.0845,2.0846,2.0846,2.0847,2.0836,2.0835,2.0835,0,0,0,0,0,0,0,0,0,0,0,0,0,2.0855,2.0864,2.0842,2.0847,2.0847,2.0834,2.0834,2.0834,2.0845,2.0846,2.0846,2.0847,2.0836,2.0835,2.0834,2.0816,0,0,2.0831,2.0831,0,0,0,0,0,0,0,0,2.0856,2.0855,2.0846,2.0847,2.0847,2.0841,2.0838,2.0828,2.0845,2.0846,2.0847,2.0847,2.0837,2.0836,2.0833,2.0815,2.0815,2.0831,2.0831,2.083,2.083,0,0,0,0,0,0,0,2.0856,2.0855,2.0839,2.0846,2.0847,2.0848,2.0848,2.0836,2.0838,2.0846,2.0847,2.0846,2.0837,2.0834,2.0833,2.0814,2.0831,2.083,2.083,2.0829,2.0777,2.0776,0,0,0,0,0,0,2.0857,2.0855,2.0839,2.0839,2.0853,2.0847,2.0847,2.0843,2.0838,2.0838,2.0845,2.0846,2.0835,2.0834,2.0833,2.0808,2.083,2.0829,2.0829,2.0778,2.0777,2.0776,0,0,0,0,0,0,2.0857,2.0855,2.084,2.0847,2.0845,2.0846,2.0842,2.0842,2.0839,2.0838,2.0838,2.0842,2.0836,2.0834,2.0819,2.0808,2.0829,2.0828,2.0779,2.0777,2.0776,2.076,0,0,0,0,0,0,2.0858,2.0856,2.0849,2.0847,2.0845,2.0827,2.0841,2.0841,2.0837,2.0839,2.0834,2.0834,2.0836,2.0821,2.0818,2.0807,2.0827,2.078,2.0778,2.0777,2.0761,2.0758,2.0755,0,0,0,0,0,2.0859,2.0845,2.0849,2.0847,2.0837,2.0827,2.0825,2.0829,2.0836,2.0829,2.0828,2.0834,2.081,2.0819,2.0816,2.0804,2.078,2.0779,2.0777,2.0762,2.0759,2.0755,0,0,0,0,0,0,2.0846,2.0845,2.0849,2.0835,2.0831,2.0829,2.082,2.0825,2.0818,2.082,2.0823,2.0822,2.0806,2.0804,2.0814,2.0784,2.0796,2.0794,2.0786,2.0782,2.0779,2.078,2.0826,0,0,0,0,0,2.0842,2.0834,2.0833,2.082,2.0818,2.0819,2.0815,2.0818,2.0813,2.0811,2.0809,2.0804,2.0795,2.0789,2.078,2.0761,2.0759,2.0751,2.0749,2.0746,2.0744,2.073,2.0726,2.077,2.077,2.077,0,0,2.0832,2.0831,2.0826,2.0818,2.0815,2.0805,2.0818,2.0808,2.08,2.081,2.0795,2.0793,2.0787,2.0769,2.0761,2.0767,2.0731,2.0744,2.0742,2.0741,2.0728,2.0724,2.072,2.0769,2.0769,2.0769,0,0,2.081,2.0809,2.0797,2.0794,2.0789,2.079,2.0787,2.0784,2.0783,2.0768,2.0774,2.0765,2.0749,2.0744,2.0739,2.0712,2.0717,2.071,2.0694,2.0681,2.0677,2.0674,2.0662,2.0658,2.0707,2.0707,2.0707,0,2.0799,2.0786,2.079,2.0779,2.0774,2.0782,2.0769,2.0765,2.0758,2.0754,2.0761,2.074,2.0737,2.0716,2.0709,2.0706,2.0701,2.071,2.0678,2.0674,2.0672,2.066,2.0656,2.0706,2.0706,2.0707,2.0707,0,2.0771,2.0761,2.0752,2.0744,2.0739,2.0727,2.0728,2.0721,2.0724,2.0723,2.0706,2.0703,2.0692,2.0688,2.0691,2.0667,2.067,2.0677,2.0689,2.0666,2.0655,2.0651,2.0705,2.0705,2.0706,2.0706,0,0,2.0741,2.0735,2.0731,2.0726,2.0721,2.0713,2.07,2.0691,2.0684,2.0678,2.0665,2.0651,2.0657,2.0652,2.0654,2.0642,2.0618,2.065,2.065,2.0642,2.0588,2.0581,2.0576,2.0621,2.062,2.062,2.0587,0,2.0717,2.0695,2.0698,2.0677,2.0666,2.0673,2.0661,2.0656,2.0654,2.0644,2.0642,2.0631,2.0641,2.0637,2.0626,2.0623,2.0606,2.0626,2.0607,2.0606,2.0607,2.057,2.0564,2.0534,2.0583,2.0582,2.0582,0,2.0686,2.0679,2.0656,2.065,2.0646,2.0636,2.0625,2.0617,2.0609,2.0609,2.0601,2.0605,2.0589,2.0602,2.0579,2.0592,2.0585,2.0582,2.0581,2.0578,2.0592,2.0564,2.0524,2.0519,2.0576,2.0576,2.0577,0,2.0664,2.0648,2.0632,2.0628,2.0622,2.0613,2.061,2.0603,2.0596,2.0587,2.0582,2.0571,2.0564,2.0555,2.0554,2.0564,2.053,2.0543,2.0527,2.0526,2.0518,2.0518,2.0474,2.0517,2.0517,2.0517,2.0517,0,2.0636,2.0621,2.0622,2.0612,2.0594,2.0597,2.0579,2.0577,2.057,2.0558,2.0563,2.0551,2.0552,2.0539,2.0539,2.0518,2.0516,2.0513,2.0512,2.0511,2.0511,2.0505,2.0506,2.0516,2.0516,2.0516,2.0516,0,2.0607,2.0608,2.059,2.0584,2.0582,2.057,2.0564,2.0553,2.0552,2.0536,2.0532,2.0529,2.0514,2.0513,2.0496,2.0495,2.0469,2.0472,2.0472,2.0471,2.0454,2.0455,2.0403,2.0395,2.0445,2.0444,2.0444,0,2.0589,2.0578,2.057,2.0563,2.0559,2.0547,2.0539,2.0541,2.0532,2.0521,2.0511,2.0497,2.0485,2.0461,2.0456,2.0442,2.0443,2.0426,2.0441,2.0439,2.0439,2.0439,2.0437,2.0422,2.0422,2.0421,2.0421,0,2.0555,2.0555,2.0545,2.0533,2.0524,2.0515,2.0507,2.05,2.05,2.049,2.0475,2.0466,2.0447,2.0432,2.0417,2.0412,2.0415,2.0416,2.0411,2.0409,2.0408,2.0405,2.0461,2.0417,2.0418,2.0418,2.0418,2.0418,2.0529,2.0518,2.0511,2.0498,2.0492,2.0483,2.0472,2.0469,2.0456,2.0442,2.0443,2.0425,2.0415,2.0396,2.039,2.0374,2.038,2.0373,2.0371,2.0369,2.0366,2.0412,2.0372,2.0372,2.0372,2.0372,2.0372,0,2.0493,2.0489,2.0477,2.0465,2.0454,2.0459,2.0449,2.0439,2.0424,2.0415,2.0403,2.0384,2.0368,2.0361,2.0345,2.0334,2.0335,2.033,2.0329,2.0327,2.0363,2.0368,2.0329,2.0329,2.0329,2.0329,2.0329,2.0329,2.0474,2.0455,2.0453,2.043,2.0425,2.0408,2.0402,2.0393,2.0385,2.0364,2.0351,2.0347,2.0338,2.032,2.0305,2.0303,2.0296,2.0289,2.0288,2.0321,2.0325,2.033,2.0334,2.0288,2.0288,2.0253,2.0253,2.0252]}]]